This is the latest recevied weather packets stored in our database for station/object N3TJJ-11. If no packets are shown the sender has not sent any weather packets the latest 10 day(s).
| Time | Temp. | Humidity | Pressure | Rain* | Wind** | Luminosity | Snow |
|---|---|---|---|---|---|---|---|
| 1777832628 | 11.67° C | 39% | 1013.2 hPa | 0 mm | - | - | - |
| 1777832029 | 11.67° C | 41% | 1013.1 hPa | 0 mm | - | - | - |
| 1777831908 | 11.67° C | 41% | 1013 hPa | 0 mm | - | - | - |
| 1777831429 | 11.67° C | 40% | 1013.2 hPa | 0 mm | - | - | - |
| 1777831188 | 11.67° C | 39% | 1013.3 hPa | 0 mm | - | - | - |
| 1777830829 | 11.67° C | 41% | 1013.2 hPa | 0 mm | - | - | - |
| 1777830468 | 11.11° C | 41% | 1013.4 hPa | 0 mm | - | - | - |
| 1777830229 | 11.11° C | 41% | 1013.2 hPa | 0 mm | - | - | - |
| 1777829748 | 10.56° C | 45% | 1013.3 hPa | 0 mm | - | - | - |
| 1777829629 | 10° C | 46% | 1013.4 hPa | 0 mm | - | - | - |
| 1777829028 | 10.56° C | 41% | 1013.4 hPa | 0 mm | - | - | - |
| 1777828429 | 10.56° C | 40% | 1013.6 hPa | 0 mm | - | - | - |
| 1777828308 | 10.56° C | 42% | 1013.6 hPa | 0 mm | - | - | - |
| 1777827829 | 10° C | 41% | 1013.4 hPa | 0 mm | - | - | - |
| 1777827588 | 10.56° C | 43% | 1013.5 hPa | 0 mm | - | - | - |
| 1777827229 | 10° C | 41% | 1013.5 hPa | 0 mm | - | - | - |
| 1777826868 | 10° C | 41% | 1013.6 hPa | 0 mm | - | - | - |
| 1777826629 | 10° C | 43% | 1013.6 hPa | 0 mm | - | - | - |
| 1777826148 | 10° C | 42% | 1013.7 hPa | 0 mm | - | - | - |
| 1777826029 | 10° C | 42% | 1013.8 hPa | 0 mm | - | - | - |
| 1777825428 | 9.44° C | 42% | 1014 hPa | 0 mm | - | - | - |
| 1777824829 | 9.44° C | 42% | 1013.9 hPa | 0 mm | - | - | - |
| 1777824708 | 9.44° C | 48% | 1013.9 hPa | 0 mm | - | - | - |
| 1777824229 | 9.44° C | 42% | 1013.9 hPa | 0 mm | - | - | - |
| 1777823988 | 9.44° C | 45% | 1013.9 hPa | 0 mm | - | - | - |
* Rain latest hour (hover to see other rain measurements)
** Current wind speed in m/s (hover to see current wind gust speed)